Estación de Las Petacas
Ultimos registro cada 15 minutos 24
| N° | Estación | Fecha / Hora | Temperatura | Humedad | Lluvia | Velocidad | Dirección | Radiación | Presion |
| 24 | Las Petacas | 03-09-2026 05:45 | 11,7 | 85,6 | 0 | 1 | 173 | 0,6 | 972,9 |
| 23 | Las Petacas | 03-09-2026 05:30 | 11,4 | 85,6 | 0 | 0,7 | 161 | 0,6 | 973 |
| 22 | Las Petacas | 03-09-2026 05:15 | 11,8 | 85,2 | 0 | 0,3 | 159 | 0,6 | 973 |
| 21 | Las Petacas | 03-09-2026 05:00 | 11,9 | 84,9 | 0 | 0 | 143 | 0,6 | 973 |
| 20 | Las Petacas | 03-09-2026 04:45 | 12,2 | 84,2 | 0 | 0 | 80 | 0,6 | 972,9 |
| 19 | Las Petacas | 03-09-2026 04:30 | 12,3 | 84 | 0 | 0,3 | 55 | 0,6 | 972,9 |
| 18 | Las Petacas | 03-09-2026 04:15 | 12,3 | 84 | 0 | 0,3 | 166 | 0,6 | 972,8 |
| 17 | Las Petacas | 03-09-2026 04:00 | 12,2 | 83,4 | 0 | 0,3 | 170 | 0,6 | 972,6 |
| 16 | Las Petacas | 03-09-2026 03:45 | 12,3 | 82,9 | 0 | 0,7 | 191 | 0,6 | 972,8 |
| 15 | Las Petacas | 03-09-2026 03:30 | 12,4 | 82,9 | 0 | 0,7 | 183 | 0,6 | 972,8 |
| 14 | Las Petacas | 03-09-2026 03:15 | 12,6 | 83,9 | 0 | 0,7 | 184 | 0,6 | 972,8 |
| 13 | Las Petacas | 03-09-2026 03:00 | 12,7 | 84,4 | 0 | 1 | 170 | 0,6 | 973 |
| 12 | Las Petacas | 03-09-2026 02:45 | 13 | 84,3 | 0 | 0,7 | 168 | 0,6 | 972,9 |
| 11 | Las Petacas | 03-09-2026 02:30 | 13 | 84,3 | 0 | 0,7 | 177 | 0,6 | 973,1 |
| 10 | Las Petacas | 03-09-2026 02:15 | 13 | 84,3 | 0 | 1 | 170 | 0,6 | 973,3 |
| 9 | Las Petacas | 03-09-2026 02:00 | 13,2 | 83,7 | 0 | 1 | 164 | 0,6 | 973,4 |
| 8 | Las Petacas | 03-09-2026 01:45 | 13,4 | 83,2 | 0 | 1 | 164 | 0,6 | 973,6 |
| 7 | Las Petacas | 03-09-2026 01:30 | 13,5 | 83,5 | 0 | 0,7 | 178 | 0,6 | 973,6 |
| 6 | Las Petacas | 03-09-2026 01:15 | 13,5 | 83,8 | 0 | 0,3 | 152 | 0,6 | 973,6 |
| 5 | Las Petacas | 03-09-2026 01:00 | 13,6 | 84,1 | 0 | 0 | 163 | 0,6 | 973,6 |
| 4 | Las Petacas | 03-09-2026 00:45 | 13,6 | 83,9 | 0 | 0 | 170 | 0,6 | 973,7 |
| 3 | Las Petacas | 03-09-2026 00:30 | 13,7 | 83,7 | 0 | 0 | 170 | 0,6 | 973,5 |
| 2 | Las Petacas | 03-09-2026 00:15 | 13,6 | 83,3 | 0 | 0,3 | 171 | 0,6 | 973,6 |
| 1 | Las Petacas | 03-09-2026 00:00 | 13,8 | 83,1 | 0 | 0,3 | 166 | 0,6 | 973,5 |